Regional Weather Roundup
Issued by NWS Northern Indiana

Home | Current Version | Previous Version | Text Only | Print | Product List | Glossary Off
Versions: 1 2 3 4 5 6 7 8 9 10 11 12 13 14 15 16 17 18 19 20 21 22 23 24 25 26 27 28 29 30 31 32 33 34 35 36 37 38 39 40 41 42 43 44 45 46 47 48 49 50

000
ASUS43 KIWX 051500
RWRIWX

KIWX WEATHER ROUNDUP
NATIONAL WEATHER SERVICE NORTHERN INDIANA
1000 AM EST MON DEC 05 2016

NOTE: "FAIR" INDICATES FEW OR NO CLOUDS BELOW 12,000 FEET WITH NO
SIGNIFICANT WEATHER AND/OR OBSTRUCTIONS TO VISIBILITY.

* THESE STATIONS ARE NOT UNDER NWS QUALITY CONTROL. THEY ALSO MAY NOT
  REPORT WEATHER SUCH AS PRECIPITATION OR FOG.

INZ001>027-051600-
NORTHERN INDIANA

CITY           SKY/WX    TMP DP  RH WIND       PRES   REMARKS
GARY*          CLOUDY    34  32  93 SW5       30.05R FOG     WCI  30
SOUTH BEND     CLOUDY    31  30  96 S10       30.06R WCI  22
GOSHEN         CLOUDY    33  28  81 SW8       30.06R WCI  26
MONTICELLO*    CLOUDY    32  28  84 S5        30.07R WCI  28
ANGOLA*        CLOUDY    34  28  80 SW7       30.04S WCI  28
FORT WAYNE     CLOUDY    33  29  85 SW7       30.08S WCI  27

$$
INZ028>050-051600-
CENTRAL INDIANA

CITY           SKY/WX    TMP DP  RH WIND       PRES   REMARKS
LAFAYETTE      CLOUDY    33  32  96 S3        30.08R
KOKOMO*        CLOUDY    34  30  85 SW7       30.09R WCI  28
MUNCIE*        CLOUDY    36  29  75 SW5       30.09R
INDIANAPOLIS   CLOUDY    35  30  82 S6        30.10R WCI  30

$$
MIZ043>046-050>051-056>058-064>065-071>073-077>080-051600-
SOUTHWEST LOWER MICHIGAN

CITY           SKY/WX    TMP DP  RH WIND       PRES   REMARKS
BATTLE CREEK   CLOUDY    35  33  92 SW8       30.01R WCI  29
BENTON HARBOR  CLOUDY    37  32  82 S6        30.02S
COLDWATER*     CLOUDY    34  32  91 SW7       30.02S WCI  28
HILLSDALE*     CLOUDY    34  32  93 SW5       30.01S WCI  30
HOLLAND        CLOUDY    38  32  79 W5        30.00R
GRAND RAPIDS   CLOUDY    36  32  85 SW12      30.00R
KALAMAZOO      CLOUDY    35  31  85 SW7       30.02R WCI  29
STURGIS*       CLOUDY    34  31  90 SW7       30.03S FOG     WCI  28
THREE RIVERS*  CLOUDY    34  33  94 SW7       30.04S FOG     WCI  28

$$
OHZ001>008-015>018-024>025-051600-
NORTHWEST OHIO

CITY           SKY/WX    TMP DP  RH WIND       PRES   REMARKS
DEFIANCE       CLOUDY    36  30  79 S5        30.08R
FINDLAY        CLOUDY    35  29  78 SW7       30.08R WCI  29
TOLEDO EXPRESS CLOUDY    35  33  92 SW7       30.07R WCI  29
TOLEDO METCALF CLOUDY    36  33  89 SW9       30.09R FOG
LIMA           CLOUDY    33  31  92 SW7       30.09R WCI  27

$$
AND FOR LAKE MICHIGAN COASTAL AND OPEN LAKE BUOY OBSERVATIONS

STATION/POSITION TEMP    WIND        PRES    VSBY  WAVE
                 AIR SEA DIR/SP/G                  HT/PER
                 (F)     (DEG/KT/KT) (MB)    (MI)  (FT/S)
CALUMET HARBOR    33     190/  7/ 10 1016.7R
BURNS HARBOR      34     210/  9/ 12 1017.9R

$$
&&



USA.gov is the U.S. government's official web portal to all federal, state and local government web resources and services.